Regional Weather Roundup
Issued by NWS

Home | Current Version | Previous Version | Text Only | Print | Product List | Glossary Off
Versions: 1 2 3 4 5 6 7 8 9 10 11 12 13 14 15 16 17 18 19 20 21 22 23 24 25 26 27

000
ASUS45 KPSR 261710
RWRAZ

ARIZONA HOURLY REGIONAL WEATHER ROUNDUP
NATIONAL WEATHER SERVICE PHOENIX AZ
1000 AM MST MON SEP 26 2016

NOTE: FAIR INDICATES FEW OR NO CLOUDS BELOW 12,000 FEET WITH NO
SIGNIFICANT WEATHER AND/OR OBSTRUCTIONS TO VISIBILITY.

AZZ001>003-036-261800-
NORTHWEST ARIZONA

CITY           SKY/WX    TMP DP  RH WIND       PRES   REMARKS
BULLHEAD CITY  SUNNY     84  37  18 N25G36    30.09S
KINGMAN        SUNNY     78  33  19 VRB3      30.25S
$$

AZZ004>008-015-016-018-261800-
NORTH CENTRAL ARIZONA

CITY           SKY/WX    TMP DP  RH WIND       PRES   REMARKS
GRAND CANYON   SUNNY     64  37  36 E13       30.47S
PRESCOTT       MOSUNNY   71  38  29 NE15G22   30.33F
FLAGSTAFF      SUNNY     59  35  40 E14G23    30.47S
PAYSON         MOSUNNY   72  34  25 NE17G25   30.34S
$$

AZZ009>014-017-261800-
NORTHEAST ARIZONA

CITY           SKY/WX    TMP DP  RH WIND       PRES   REMARKS
WINSLOW        SUNNY     70  36  28 SE13G20   30.38F
SAINT JOHNS    PTSUNNY   63  35  35 E20       30.40F
WINDOW ROCK    SUNNY     66  34  30 E7        30.48S
SHOW LOW       MOSUNNY   63  32  31 E16G24    30.41S
$$

AZZ023-261800-
GREATER PHOENIX AREA

CITY           SKY/WX    TMP DP  RH WIND       PRES   REMARKS
PHOENIX        PTSUNNY   88  50  27 SE9       30.06S
BUCKEYE        PTSUNNY   86  48  26 SE9       30.08S
GLENDALE       PTSUNNY   88  48  25 CALM      30.09S
LUKE AFB       CLOUDY    89  50  26 E8        30.06S
DEER VALLEY    CLOUDY    85  37  18 E7        30.09S
SCOTTSDALE     PTSUNNY   88  38  17 NE10      30.11S
MESA-GATEWAY   PTSUNNY   84  46  26 E13       30.10S
CHANDLER       MOSUNNY   84  52  32 E12       30.09R
$$

AZZ027-028-261800-
SOUTHWEST MARICOPA COUNTY AND PINAL COUNTY

CITY           SKY/WX    TMP DP  RH WIND       PRES   REMARKS
CASA GRANDE    PTSUNNY   82  46  28 E14       30.11S
GILA BEND      PTSUNNY   87  49  26 E14       30.03S
$$

AZZ503-504-507>509-261800-
SOUTHEAST ARIZONA

CITY           SKY/WX    TMP DP  RH WIND       PRES   REMARKS
TUCSON         CLOUDY    75  48  38 E7        30.17R
DAVIS-MONTHAN  CLOUDY    73  47  40 E12       30.16R
RYAN FIELD     SUNNY     75  48  38 E14G21    30.14S
NOGALES        LGT RAIN  61  50  67 S17G31    30.21R
SIERRA VISTA   LGT RAIN  54  51  90 SE15      30.31R
DOUGLAS        LGT RAIN  57  51  80 E8        30.30R
SAFFORD        CLOUDY    68  52  56 S6        30.24S
$$

AZZ020-021-025-026-031-261800-
SOUTHWEST ARIZONA

CITY           SKY/WX    TMP DP  RH WIND       PRES   REMARKS
YUMA           PTSUNNY   90  39  16 NE16      29.97S
$$

CAZ031-033-041-043-047-048-061-261800-
SOUTHERN CALIFORNIA

CITY           SKY/WX    TMP DP  RH WIND       PRES   REMARKS
DOWNTOWN L.A.  SUNNY     91  35  13 N3        29.94S
L.A. AIRPORT   MOSUNNY   94  26   9 NE8       29.95S
SAN DIEGO      MOSUNNY   84  46  26 W5        29.93F
BURBANK        SUNNY     84  37  18 E5        29.99R
ONTARIO        MOSUNNY   88  30  12 SE5       30.00S
RIVERSIDE      SUNNY     89  40  17 S3        30.00S
PALM SPRINGS   MOSUNNY   95  33  11 W5        30.01S
EL CENTRO NAS  MOSUNNY   93  33  12 NE5       29.97S
IMPERIAL       SUNNY     93  42  17 CALM      29.96R
BLYTHE         MOSUNNY   91  40  16 E13       30.02S
NEEDLES        SUNNY     89  39  17 N15       30.10S
$$

NVZ020-UTZ003-261800-
SOUTHERN NEVADA-UTAH

CITY           SKY/WX    TMP DP  RH WIND       PRES   REMARKS
LAS VEGAS      MOSUNNY   80  29  15 CALM      30.22S
SALT LAKE CITY SUNNY     63  43  48 VRB3      30.42S
$$

NMZ009-TXZ055-261800-
NEW MEXICO-WEST TEXAS

CITY           SKY/WX    TMP DP  RH WIND       PRES   REMARKS
ALBUQUERQUE    MOSUNNY   63  34  33 VRB5      30.46F
EL PASO        CLOUDY    58  47  66 SE10      30.35S
$$


........................KEY........................
SKY/WX - SKY CONDITION/WEATHER
TMP    - TEMPERATURE IN FAHRENHEIT
DP     - DEW POINT IN FAHRENHEIT
RH     - RELATIVE HUMIDITY IN PERCENT
WIND   - DIRECTION AND SPEED IN MILES PER HOUR (MPH)
VRB    - VARIABLE WIND DIRECTION
PRES   - MEAN SEA LEVEL PRESSURE IN INCHES OF MERCURY
         F - FALLING PRESSURE   R - RISING PRESSURE
         S - STEADY PRESSURE
VSB    - VISIBILITY IN MILES
HX     - HEAT INDEX IN FAHRENHEIT
WCI    - WIND CHILL INDEX IN FAHRENHEIT
TC     - TEMPERATURE IN CELSIUS WHICH IS ALSO KNOWN AS
         TEMPERATURE IN CENTIGRADE
AFB    - AIR FORCE BASE
         LUKE AFB IS LUKE AIR FORCE BASE
         DAVIS-MONTHAN IS DAVIS-MONTHAN AIR FORCE BASE
NAS    - NAVAL AIR STATION
         EL CENTRO NAS IS EL CENTRO NAVAL AIR STATION
N/A    - NOT AVAILABLE





USA.gov is the U.S. government's official web portal to all federal, state and local government web resources and services.